[[{"header":{"parameterUnit":"m.s-1","parameterCategory":1,"la1":30.2991,"la2":30.254,"lo1":-89.0895,"lo2":-89.0444,"dy":0.0017,"dx":0.0017,"nx":28,"ny":28,"refTime":"2023-09-06T09:00:00:Z","depth":0,"parameterNumber":2,"parameterNumberName":"U-component_of_WINDS"},"data":[0,0,0,0,0,0,0,0,0,0,0,0,0,0,0,0,0,0,0,0,0,0,0,0,0,0,0,0,0,0,0,0,0,0,0,0,0,0,0,0,0,0,0,0,0,0,0,0,0,0,0,0,0,0,0,0,0,0,0.907,0.9071,0,0.9159,0.916,0.9161,0.919,0.919,0.9189,0.9189,0.928,0.9283,0.9286,0,0,0,0,0,0,0,0,0,0,0,0,0,0.8925,0.8927,0.907,0.9071,0.9072,0.9159,0.916,0.9162,0.919,0.919,0.9189,0.9189,0.928,0.9283,0.9286,0,0,0,0,0,0,0,0,0,0,0,0,0,0.8998,0.8928,0.907,0.9097,0.91,0.9159,0.916,0.9162,0.919,0.919,0.9189,0.9188,0.9278,0.9283,0.9287,0.9325,0,0,0.93,0.9301,0,0,0,0,0,0,0,0,0.8994,0.9003,0.9092,0.9095,0.9099,0.9163,0.9143,0.9217,0.919,0.9156,0.9189,0.9188,0.9242,0.9249,0.9267,0.9329,0.9333,0.93,0.9303,0.9304,0.9306,0,0,0,0,0,0,0,0.8989,0.9,0.9105,0.9093,0.9098,0.9105,0.9115,0.9157,0.9201,0.9159,0.9161,0.9171,0.9244,0.9263,0.9269,0.9334,0.93,0.9304,0.9306,0.9308,0.9432,0.9433,0,0,0,0,0,0,0.8979,0.8995,0.9103,0.9108,0.9044,0.9108,0.9119,0.9143,0.9201,0.9209,0.9172,0.9172,0.9256,0.9264,0.9273,0.9321,0.9304,0.9308,0.9311,0.9431,0.9432,0.9433,0,0,0,0,0,0,0.8976,0.8988,0.9099,0.9052,0.9067,0.9111,0.9138,0.9145,0.9164,0.9211,0.9219,0.9183,0.9256,0.9267,0.9312,0.9324,0.931,0.9314,0.943,0.9432,0.9433,0.9417,0,0,0,0,0,0,0.8972,0.8987,0.9002,0.9052,0.9069,0.9136,0.9139,0.9147,0.9172,0.9173,0.9224,0.9231,0.9256,0.9305,0.9316,0.933,0.9317,0.9429,0.9431,0.9432,0.9417,0.9418,0.9419,0,0,0,0,0,0.8966,0.8994,0.9002,0.9015,0.9089,0.9137,0.9146,0.9174,0.9172,0.9188,0.9217,0.923,0.9321,0.9309,0.9322,0.9337,0.9429,0.943,0.9432,0.9417,0.9418,0.9419,0,0,0,0,0,0,0.8944,0.9001,0.9011,0.9056,0.9091,0.9141,0.9161,0.9175,0.9211,0.9211,0.9245,0.9256,0.9298,0.9322,0.9308,0.9377,0.9376,0.938,0.936,0.9361,0.9362,0.9355,0.9321,0,0,0,0,0,0.8944,0.8978,0.9027,0.9062,0.9079,0.9117,0.9139,0.9158,0.9195,0.921,0.9244,0.928,0.9317,0.934,0.9377,0.9421,0.9432,0.9438,0.9439,0.9439,0.9442,0.9467,0.947,0.9439,0.9439,0.9439,0,0,0.8945,0.8981,0.9,0.9058,0.9088,0.9122,0.9129,0.9166,0.9192,0.9216,0.926,0.9286,0.9328,0.9373,0.9394,0.9394,0.9454,0.9441,0.9441,0.9444,0.9469,0.9472,0.9474,0.944,0.944,0.9439,0,0,0.8964,0.8995,0.9027,0.9056,0.9101,0.9126,0.9134,0.9183,0.92,0.9245,0.9264,0.9296,0.9359,0.9388,0.9412,0.9442,0.9455,0.9453,0.9458,0.9481,0.9484,0.9486,0.9497,0.95,0.9457,0.9456,0.9456,0,0.8959,0.9012,0.9042,0.9077,0.9102,0.9126,0.9159,0.9186,0.9241,0.9257,0.9257,0.9337,0.9367,0.9418,0.9426,0.9444,0.9454,0.9447,0.9481,0.9484,0.9486,0.9497,0.9501,0.9456,0.9456,0.9456,0.9456,0,0.9004,0.904,0.9061,0.9113,0.9141,0.9175,0.9209,0.9234,0.925,0.9275,0.9321,0.9358,0.9403,0.9416,0.9433,0.947,0.9469,0.9475,0.9473,0.9488,0.9499,0.9503,0.9455,0.9455,0.9456,0.9456,0,0,0.9011,0.9079,0.9086,0.911,0.9161,0.919,0.9225,0.9268,0.9288,0.9325,0.9355,0.9408,0.9414,0.944,0.946,0.9481,0.9502,0.9484,0.9486,0.9486,0.9545,0.954,0.9544,0.9511,0.9512,0.9513,0.9541,0,0.9036,0.91,0.9128,0.9179,0.9213,0.9236,0.9267,0.9302,0.9326,0.9359,0.9386,0.9423,0.9428,0.9444,0.9465,0.9495,0.9515,0.9493,0.9539,0.954,0.9527,0.955,0.9545,0.957,0.9546,0.9546,0.9547,0,0.9074,0.911,0.9165,0.9212,0.9227,0.9254,0.9297,0.9327,0.9367,0.9384,0.9413,0.9432,0.947,0.9467,0.9519,0.9504,0.9525,0.9542,0.9544,0.9549,0.9544,0.9555,0.9579,0.9582,0.9554,0.9553,0.9553,0,0.9072,0.9136,0.9176,0.9196,0.9252,0.9271,0.9295,0.9334,0.9359,0.9396,0.9412,0.9453,0.9475,0.9506,0.9536,0.9531,0.9585,0.9585,0.96,0.9599,0.961,0.9608,0.9637,0.9624,0.9624,0.9624,0.9624,0,0.9097,0.9129,0.9177,0.9202,0.9238,0.9271,0.9306,0.9332,0.9367,0.9397,0.942,0.9448,0.9486,0.9519,0.9542,0.9582,0.9592,0.9606,0.9612,0.9604,0.9602,0.9617,0.9616,0.9625,0.9624,0.9624,0.9624,0,0.9101,0.9135,0.918,0.923,0.9243,0.9268,0.9311,0.9336,0.9362,0.94,0.9411,0.9452,0.9491,0.9524,0.9576,0.9592,0.9633,0.964,0.962,0.9622,0.9636,0.9634,0.9674,0.9681,0.9664,0.9664,0.9664,0,0.9115,0.914,0.9193,0.9215,0.9239,0.9274,0.9299,0.9332,0.9357,0.9405,0.9424,0.9465,0.95,0.9563,0.9597,0.9637,0.9645,0.9656,0.9651,0.9642,0.9644,0.9642,0.9645,0.9656,0.9656,0.9656,0.9656,0,0.9135,0.915,0.9185,0.9227,0.9256,0.929,0.9325,0.9342,0.9381,0.9408,0.9449,0.9476,0.9529,0.957,0.9613,0.9638,0.9654,0.9658,0.9663,0.9655,0.9642,0.9649,0.962,0.9657,0.9657,0.9657,0.9657,0.9657,0.9144,0.9167,0.9208,0.9247,0.9277,0.9309,0.9335,0.9364,0.9399,0.9445,0.9462,0.9504,0.9543,0.9603,0.9628,0.9662,0.9663,0.9671,0.9673,0.9675,0.9673,0.9637,0.967,0.967,0.967,0.967,0.967,0,0.9165,0.9192,0.9228,0.9275,0.9306,0.9318,0.9357,0.9382,0.9418,0.9454,0.9488,0.9535,0.9574,0.9612,0.9653,0.9672,0.9681,0.9682,0.9681,0.9686,0.967,0.9661,0.9675,0.9675,0.9675,0.9675,0.9675,0.9675,0.9179,0.922,0.924,0.9295,0.9323,0.9364,0.9385,0.9415,0.9443,0.9495,0.9528,0.9552,0.9588,0.9633,0.9669,0.9679,0.9693,0.9693,0.9705,0.9688,0.9687,0.9687,0.9678,0.9696,0.9696,0.9719,0.9719,0.9719]},{"header":{"parameterUnit":"m.s-1","parameterCategory":1,"la1":30.2991,"la2":30.254,"lo1":-89.0895,"lo2":-89.0444,"dy":0.0017,"dx":0.0017,"nx":28,"ny":28,"refTime":"2023-09-06T09:00:00:Z","depth":0,"parameterNumber":3,"parameterNumberName":"V-component_of_WINDS"},"data":[0,0,0,0,0,0,0,0,0,0,0,0,0,0,0,0,0,0,0,0,0,0,0,0,0,0,0,0,0,0,0,0,0,0,0,0,0,0,0,0,0,0,0,0,0,0,0,0,0,0,0,0,0,0,0,0,0,0,4.3446,4.3445,0,4.3383,4.3382,4.3382,4.3357,4.3357,4.3358,4.3358,4.3285,4.3283,4.3281,0,0,0,0,0,0,0,0,0,0,0,0,0,4.3537,4.3536,4.3446,4.3445,4.3445,4.3383,4.3382,4.3381,4.3357,4.3357,4.3358,4.3358,4.3285,4.3283,4.328,0,0,0,0,0,0,0,0,0,0,0,0,0,4.3488,4.3535,4.3446,4.3425,4.3423,4.3383,4.3382,4.3381,4.3357,4.3357,4.3358,4.3358,4.3286,4.3283,4.328,4.3254,0,0,4.327,4.3269,0,0,0,0,0,0,0,0,4.3491,4.3485,4.3429,4.3427,4.3424,4.3378,4.3388,4.3338,4.3357,4.3382,4.3358,4.3358,4.3315,4.331,4.3297,4.3251,4.3248,4.327,4.3268,4.3267,4.3266,0,0,0,0,0,0,0,4.3494,4.3487,4.3421,4.3428,4.3425,4.3416,4.341,4.3378,4.3347,4.338,4.3378,4.3371,4.3314,4.33,4.3295,4.3247,4.327,4.3267,4.3265,4.3264,4.3175,4.3174,0,0,0,0,0,0,4.3502,4.349,4.3423,4.3419,4.3459,4.3414,4.3407,4.3393,4.3348,4.3341,4.3371,4.337,4.3305,4.3299,4.3292,4.3259,4.3267,4.3264,4.3262,4.3175,4.3175,4.3174,0,0,0,0,0,0,4.3504,4.3497,4.3425,4.3454,4.3445,4.3413,4.3396,4.3391,4.3378,4.3341,4.3335,4.3363,4.3305,4.3297,4.3264,4.3256,4.3262,4.3259,4.3176,4.3175,4.3174,4.3192,0,0,0,0,0,0,4.3507,4.3498,4.349,4.3454,4.3443,4.3401,4.3396,4.339,4.3373,4.3372,4.3332,4.3326,4.3305,4.3269,4.3261,4.3251,4.3257,4.3176,4.3175,4.3175,4.3192,4.3192,4.3192,0,0,0,0,0,4.3511,4.3495,4.3489,4.3481,4.3433,4.3401,4.3394,4.3373,4.3373,4.3363,4.3339,4.3327,4.3258,4.3266,4.3257,4.3246,4.3177,4.3176,4.3175,4.3192,4.3192,4.3192,0,0,0,0,0,0,4.3528,4.349,4.3483,4.3457,4.3433,4.3397,4.3384,4.3374,4.3347,4.3346,4.3318,4.3309,4.3279,4.3259,4.3268,4.3218,4.3216,4.3213,4.3232,4.3232,4.3232,4.3237,4.3254,0,0,0,0,0,4.3529,4.3509,4.3476,4.3455,4.3444,4.3416,4.3401,4.3387,4.336,4.3349,4.3323,4.3294,4.3266,4.3248,4.322,4.3189,4.3179,4.3176,4.3176,4.3177,4.3174,4.3155,4.3153,4.3171,4.3171,4.3171,0,0,4.353,4.3507,4.3496,4.3458,4.3438,4.3415,4.3408,4.3384,4.3366,4.3344,4.3313,4.3292,4.3258,4.3226,4.3211,4.3209,4.3167,4.3175,4.3176,4.3173,4.3153,4.3152,4.315,4.317,4.317,4.317,0,0,4.3521,4.3502,4.3483,4.3463,4.3433,4.3415,4.341,4.3376,4.3363,4.3331,4.3314,4.3291,4.3243,4.322,4.3201,4.3183,4.317,4.3174,4.3173,4.3155,4.3154,4.3152,4.3144,4.3142,4.3172,4.3172,4.3172,0,4.3526,4.3494,4.3474,4.3452,4.3435,4.3417,4.3395,4.3376,4.3337,4.3325,4.3324,4.3263,4.3239,4.3201,4.3197,4.3183,4.3174,4.3178,4.3156,4.3154,4.3152,4.3145,4.3142,4.3172,4.3172,4.3172,4.3172,0,4.35,4.3478,4.3465,4.3432,4.3413,4.3391,4.3366,4.3349,4.3336,4.3317,4.3284,4.3254,4.322,4.3209,4.3195,4.3168,4.3168,4.3162,4.316,4.3152,4.3144,4.3141,4.3173,4.3173,4.3173,4.3173,0,0,4.35,4.3456,4.3452,4.3436,4.3401,4.3382,4.3358,4.3327,4.3313,4.3286,4.3264,4.3224,4.3218,4.3197,4.318,4.3164,4.315,4.3159,4.3158,4.3158,4.3117,4.3122,4.3119,4.3142,4.3141,4.314,4.312,0,4.3486,4.3447,4.3428,4.3395,4.3373,4.3355,4.3333,4.3308,4.3289,4.3266,4.3243,4.3216,4.321,4.3197,4.3181,4.3156,4.3141,4.3157,4.3118,4.3117,4.3127,4.3115,4.312,4.3102,4.3116,4.3116,4.3116,0,4.3465,4.3441,4.3407,4.3375,4.3364,4.3346,4.3316,4.3294,4.3264,4.3251,4.3229,4.3212,4.3183,4.3184,4.3142,4.3153,4.3136,4.3121,4.312,4.3115,4.3116,4.3109,4.3096,4.3093,4.3111,4.3111,4.3111,0,4.3468,4.3427,4.3401,4.3388,4.335,4.3337,4.332,4.3291,4.3273,4.3245,4.3233,4.3201,4.3183,4.3157,4.3132,4.3134,4.3092,4.309,4.3079,4.3079,4.3071,4.3071,4.3054,4.306,4.306,4.306,4.306,0,4.3454,4.3433,4.3402,4.3386,4.3362,4.3339,4.3315,4.3295,4.3269,4.3247,4.3228,4.3207,4.3175,4.3149,4.3129,4.3097,4.3089,4.3076,4.307,4.3077,4.3079,4.3065,4.3066,4.306,4.306,4.306,4.306,0,4.3453,4.3432,4.3402,4.3369,4.336,4.3343,4.3313,4.3295,4.3275,4.3248,4.3239,4.3207,4.3176,4.3148,4.3105,4.3091,4.3058,4.3052,4.307,4.3067,4.3057,4.3058,4.3029,4.3024,4.3035,4.3035,4.3034,0,4.3446,4.343,4.3395,4.3381,4.3365,4.3341,4.3323,4.3299,4.3281,4.3245,4.3231,4.3199,4.3172,4.3122,4.3093,4.306,4.3052,4.3044,4.3046,4.3054,4.3051,4.3052,4.305,4.3044,4.3044,4.3044,4.3044,0,4.3434,4.3425,4.3402,4.3375,4.3355,4.3331,4.3307,4.3295,4.3266,4.3246,4.3215,4.3195,4.3152,4.3119,4.3083,4.3062,4.3047,4.3044,4.3039,4.3046,4.3057,4.305,4.3069,4.3044,4.3044,4.3044,4.3044,4.3044,4.343,4.3415,4.3388,4.3362,4.3342,4.332,4.3302,4.3281,4.3256,4.3221,4.3208,4.3176,4.3144,4.3094,4.3073,4.3045,4.3043,4.3036,4.3035,4.3033,4.3034,4.3062,4.3039,4.3039,4.3038,4.3038,4.3038,0,4.3417,4.3399,4.3376,4.3344,4.3323,4.3315,4.3287,4.3269,4.3243,4.3216,4.319,4.3154,4.3122,4.309,4.3056,4.304,4.3032,4.3032,4.3032,4.3027,4.3039,4.3046,4.3038,4.3038,4.3038,4.3038,4.3038,4.3038,4.3408,4.3382,4.3369,4.3332,4.3313,4.3284,4.3269,4.3247,4.3226,4.3187,4.3162,4.3142,4.3113,4.3076,4.3045,4.3037,4.3024,4.3026,4.3015,4.3026,4.3026,4.3027,4.3034,4.3023,4.3023,4.3005,4.3005,4.3005]}]]